Total_Precipitation_Accumulation
0.01 0.04 0.10 0.08 0.08 0.08 0.09 0.10 0.10 0.09 0.11 0.14 0.14 0.15 0.18 0.18 0.15 0.11 0.12 0.15 0.17 0.21 0.25 0.28 0.31 0.35 0.33 0.31 0.25 0.10 0.02 0.01 0.01 0.01 0.01 0.03 0.04 0.05 0.05 0.05 0.05 0.06 0.08
0.01 0.03 0.08 0.07 0.08 0.09 0.09 0.10 0.08 0.07 0.10 0.12 0.14 0.17 0.20 0.18 0.13 0.12 0.13 0.15 0.17 0.21 0.24 0.23 0.19 0.17 0.16 0.15 0.11 0.04 0.01 0.00 0.00 0.00 0.00 0.01 0.03 0.04 0.04 0.05 0.06 0.08 0.10
0.01 0.03 0.07 0.07 0.08 0.09 0.08 0.07 0.05 0.06 0.08 0.11 0.13 0.18 0.20 0.16 0.13 0.13 0.16 0.15 0.17 0.17 0.17 0.14 0.10 0.05 0.03 0.02 0.01 0.01 0.00 0.00 0.00 0.00 0.01 0.02 0.02 0.04 0.05 0.05 0.06 0.08 0.08
0.01 0.03 0.05 0.07 0.08 0.08 0.07 0.05 0.04 0.05 0.08 0.11 0.13 0.18 0.17 0.14 0.14 0.12 0.12 0.11 0.10 0.09 0.07 0.05 0.03 0.01 0.00 0.00 0.00 0.00 0.00 0.00 0.00 0.00 0.01 0.01 0.02 0.04 0.06 0.07 0.08 0.07 0.06
0.03 0.04 0.07 0.07 0.08 0.07 0.05 0.04 0.04 0.06 0.09 0.11 0.13 0.14 0.14 0.13 0.13 0.12 0.09 0.06 0.04 0.03 0.01 0.01 0.00 0.00 0.00 0.00 0.00 0.00 0.00 0.00 0.00 0.00 0.01 0.02 0.03 0.06 0.07 0.07 0.09 0.09 0.09
0.05 0.06 0.09 0.07 0.08 0.06 0.05 0.05 0.05 0.06 0.09 0.12 0.13 0.13 0.12 0.14 0.14 0.15 0.09 0.03 0.01 0.01 0.00 0.00 0.00 0.00 0.00 0.00 0.00 0.00 0.00 0.00 0.00 0.00 0.01 0.02 0.05 0.11 0.11 0.11 0.12 0.13 0.15
0.09 0.12 0.13 0.10 0.09 0.07 0.05 0.05 0.05 0.07 0.10 0.14 0.13 0.12 0.11 0.12 0.11 0.11 0.08 0.02 0.01 0.00 0.00 0.00 0.00 0.00 0.00 0.00 0.00 0.00 0.00 0.00 0.00 0.00 0.01 0.02 0.06 0.12 0.12 0.11 0.12 0.15 0.16
0.16 0.20 0.20 0.15 0.11 0.08 0.06 0.05 0.06 0.08 0.12 0.15 0.13 0.12 0.11 0.10 0.06 0.06 0.07 0.02 0.01 0.00 0.01 0.01 0.01 0.01 0.00 0.00 0.00 0.00 0.00 0.00 0.00 0.00 0.01 0.01 0.04 0.08 0.10 0.09 0.09 0.09 0.10
0.31 0.32 0.29 0.19 0.13 0.09 0.07 0.05 0.06 0.09 0.13 0.15 0.13 0.12 0.11 0.08 0.04 0.03 0.04 0.02 0.01 0.01 0.01 0.01 0.01 0.01 0.01 0.01 0.01 0.00 0.00 0.00 0.00 0.00 0.00 0.02 0.05 0.09 0.08 0.08 0.08 0.07 0.07
0.56 0.48 0.37 0.25 0.15 0.11 0.08 0.05 0.05 0.07 0.12 0.14 0.11 0.08 0.06 0.06 0.04 0.02 0.02 0.01 0.01 0.01 0.01 0.02 0.02 0.02 0.01 0.01 0.00 0.00 0.00 0.00 0.00 0.00 0.00 0.02 0.05 0.08 0.07 0.07 0.07 0.07 0.07
0.82 0.69 0.53 0.37 0.24 0.13 0.09 0.06 0.05 0.06 0.09 0.10 0.07 0.04 0.03 0.03 0.03 0.02 0.01 0.01 0.01 0.01 0.02 0.02 0.02 0.02 0.01 0.00 0.00 0.00 0.00 0.00 0.00 0.00 0.00 0.02 0.04 0.05 0.05 0.05 0.06 0.07 0.07
0.89 0.78 0.65 0.50 0.36 0.21 0.12 0.07 0.07 0.06 0.07 0.07 0.05 0.03 0.02 0.02 0.01 0.01 0.01 0.01 0.01 0.01 0.01 0.01 0.01 0.01 0.00 0.00 0.00 0.00 0.00 0.00 0.00 0.00 0.00 0.01 0.02 0.03 0.04 0.04 0.05 0.06 0.06
1.01 0.91 0.76 0.62 0.47 0.31 0.17 0.09 0.07 0.06 0.06 0.06 0.04 0.02 0.01 0.01 0.01 0.01 0.01 0.01 0.01 0.01 0.00 0.00 0.00 0.00 0.00 0.00 0.00 0.00 0.00 0.00 0.00 0.00 0.00 0.00 0.01 0.01 0.02 0.03 0.04 0.05 0.05
1.17 1.03 0.91 0.78 0.60 0.42 0.24 0.12 0.07 0.05 0.05 0.05 0.04 0.02 0.01 0.01 0.01 0.00 0.00 0.00 0.00 0.00 0.00 0.00 0.00 0.00 0.00 0.00 0.00 0.00 0.00 0.00 0.00 0.00 0.00 0.00 0.00 0.01 0.02 0.03 0.03 0.04 0.05
1.13 1.09 0.94 0.83 0.69 0.52 0.35 0.21 0.11 0.07 0.04 0.04 0.04 0.02 0.01 0.01 0.00 0.00 0.00 0.01 0.01 0.00 0.00 0.00 0.00 0.00 0.00 0.00 0.00 0.00 0.00 0.00 0.00 0.00 0.00 0.00 0.00 0.00 0.01 0.02 0.03 0.05 0.07
1.14 1.10 1.03 0.88 0.73 0.60 0.44 0.30 0.17 0.11 0.07 0.04 0.03 0.02 0.01 0.01 0.00 0.00 0.00 0.00 0.00 0.00 0.00 0.00 0.00 0.00 0.00 0.00 0.00 0.00 0.00 0.00 0.00 0.00 0.00 0.00 0.00 0.00 0.00 0.01 0.03 0.07 0.12
1.18 1.18 1.11 0.98 0.86 0.64 0.50 0.41 0.28 0.20 0.13 0.06 0.03 0.02 0.02 0.01 0.01 0.00 0.00 0.00 0.00 0.00 0.00 0.00 0.00 0.00 0.00 0.00 0.00 0.00 0.00 0.00 0.00 0.00 0.00 0.00 0.00 0.00 0.00 0.01 0.03 0.08 0.13
1.24 1.26 1.23 1.07 0.93 0.75 0.58 0.49 0.39 0.26 0.19 0.12 0.07 0.03 0.02 0.02 0.01 0.01 0.00 0.00 0.01 0.00 0.01 0.01 0.01 0.01 0.01 0.01 0.01 0.00 0.01 0.01 0.00 0.00 0.00 0.00 0.00 0.00 0.00 0.01 0.03 0.06 0.11
1.28 1.34 1.33 1.25 1.08 0.98 0.87 0.69 0.55 0.43 0.29 0.23 0.17 0.09 0.05 0.04 0.04 0.02 0.02 0.02 0.02 0.02 0.02 0.02 0.01 0.02 0.03 0.03 0.03 0.02 0.02 0.01 0.01 0.01 0.00 0.00 0.00 0.01 0.01 0.02 0.02 0.03 0.05
1.44 1.53 1.48 1.41 1.30 1.31 1.26 1.04 0.79 0.59 0.41 0.31 0.25 0.19 0.16 0.13 0.12 0.08 0.05 0.06 0.07 0.05 0.05 0.05 0.06 0.06 0.06 0.08 0.06 0.03 0.01 0.01 0.01 0.01 0.01 0.01 0.01 0.02 0.03 0.03 0.03 0.02 0.02
1.50 1.58 1.56 1.47 1.43 1.42 1.31 1.10 0.88 0.69 0.59 0.47 0.40 0.35 0.32 0.28 0.29 0.23 0.15 0.16 0.16 0.13 0.13 0.13 0.13 0.12 0.11 0.12 0.10 0.05 0.02 0.02 0.01 0.01 0.01 0.01 0.01 0.03 0.03 0.04 0.03 0.02 0.02
1.36 1.56 1.63 1.59 1.55 1.40 1.24 1.21 1.12 1.05 0.93 0.79 0.68 0.56 0.46 0.41 0.41 0.37 0.32 0.31 0.31 0.27 0.24 0.24 0.23 0.20 0.16 0.19 0.17 0.15 0.06 0.02 0.01 0.02 0.02 0.02 0.02 0.03 0.03 0.04 0.03 0.03 0.03
1.12 1.41 1.55 1.62 1.61 1.56 1.48 1.55 1.46 1.25 1.02 0.82 0.64 0.58 0.57 0.57 0.55 0.52 0.51 0.50 0.47 0.45 0.39 0.38 0.38 0.34 0.29 0.27 0.27 0.28 0.17 0.07 0.04 0.02 0.02 0.03 0.03 0.03 0.03 0.04 0.04 0.05 0.04
0.82 1.09 1.29 1.50 1.63 1.66 1.66 1.58 1.49 1.27 1.01 0.85 0.84 0.87 0.83 0.77 0.71 0.67 0.64 0.62 0.61 0.55 0.49 0.52 0.54 0.48 0.44 0.36 0.33 0.29 0.25 0.19 0.16 0.09 0.04 0.05 0.05 0.04 0.05 0.05 0.05 0.05 0.05
0.63 0.85 1.01 1.18 1.42 1.47 1.40 1.35 1.44 1.34 1.17 1.08 1.03 0.95 0.84 0.77 0.74 0.71 0.69 0.67 0.65 0.62 0.58 0.58 0.57 0.56 0.55 0.49 0.41 0.36 0.33 0.25 0.18 0.18 0.11 0.07 0.07 0.07 0.07 0.07 0.06 0.06 0.06
0.42 0.62 0.81 0.89 1.05 1.16 1.14 1.15 1.18 1.14 1.12 1.07 0.96 0.88 0.82 0.73 0.68 0.67 0.66 0.66 0.65 0.62 0.60 0.60 0.62 0.64 0.61 0.54 0.44 0.38 0.38 0.33 0.26 0.26 0.24 0.16 0.15 0.13 0.12 0.11 0.10 0.10 0.11